Sanford, FL

2:53 PM EDT on September 23, 2017 (GMT -0400)
Orlando Sanford

Weather History for KSFB - October, 2011

Change the Weather History Date:

Friday, October 28, 2011

  Actual Average Record
Temperature  
Mean Temperature 70 °F -  
Max Temperature 73 °F 80 °F 91 °F (2002)
Min Temperature 66 °F 61 °F 44 °F (1957)
Cooling Degree Days 4    
Growing Degree Days 20 (Base 50)    
Moisture  
Dew Point 65 °F    
Average Humidity 87    
Maximum Humidity 97    
Minimum Humidity 68    
Precipitation  
Precipitation 0.07 in - - ()
Sea Level Pressure  
Sea Level Pressure 29.93 in    
Wind  
Wind Speed 2 mph (NNE)    
Max Wind Speed 6 mph    
Max Gust Speed -    
Visibility 10 miles    
Events Rain    
Averages and records for this station are not official NWS values.
T = Trace of Precipitation, MM = Missing Value Source: NWS Daily Summary

Daily Weather History Graph

Daily Weather History Graph

Search for Another Location

Airport or City:

Trip Planner

Search our weather history database for the weather conditions in past years. The results will help you decide how hot, cold, wet, or windy it might be!

Date:

Astronomy

Oct. 28, 2011 Rise Set
Actual Time 7:34 AM EDT 6:42 PM EDT
Civil Twilight 7:09 AM EDT 7:07 PM EDT
Nautical Twilight 6:42 AM EDT 7:34 PM EDT
Astronomical Twilight 6:14 AM EDT 8:02 PM EDT
Moon 9:34 AM EDT (10/28) 8:18 PM EDT (10/28)
Length of Visible Light 11h 57m
Length of Day
11h 08m
Waxing Crescent, 5% of the Moon is Illuminated
Oct 28
Waxing Crescent
Nov 2
First Quarter
Nov 10
Full
Nov 18
Last Quarter
Nov 25
New

Hourly Weather History & Observations

Time (EDT) Temp. Dew Point Humidity Pressure Visibility Wind Dir Wind Speed Gust Speed Precip Events Conditions
12:53 AM 70.0 °F 64.0 °F 81% 29.95 in 10.0 mi Calm Calm - N/A   Mostly Cloudy
1:53 AM 69.1 °F 64.9 °F 87% 29.94 in 10.0 mi Calm Calm - 0.00 in   Mostly Cloudy
2:53 AM 69.1 °F 64.0 °F 84% 29.95 in 10.0 mi West 3.5 mph - N/A   Mostly Cloudy
3:53 AM 68.0 °F 64.4 °F 88% 29.94 in 10.0 mi WNW 3.5 mph - N/A   Mostly Cloudy
4:53 AM 69.1 °F 63.0 °F 81% 29.94 in 10.0 mi SW 3.5 mph - 0.00 in Rain Light Rain
5:53 AM 66.2 °F 64.4 °F 94% 29.95 in 10.0 mi WNW 4.6 mph - N/A Rain Light Rain
6:53 AM 66.9 °F 64.9 °F 93% 29.96 in 10.0 mi Calm Calm - 0.00 in   Partly Cloudy
7:53 AM 66.9 °F 66.0 °F 97% 29.97 in 10.0 mi NNW 3.5 mph - 0.00 in Rain Light Rain
8:53 AM 68.0 °F 66.0 °F 93% 29.98 in 10.0 mi NNE 3.5 mph - 0.01 in Rain Light Rain
9:53 AM 66.0 °F 64.9 °F 96% 29.99 in 10.0 mi Calm Calm - 0.06 in Rain Light Rain
10:53 AM 68.0 °F 64.0 °F 87% 29.99 in 10.0 mi North 3.5 mph - 0.00 in   Clear
11:53 AM 70.0 °F 62.1 °F 76% 29.98 in 10.0 mi NE 4.6 mph - N/A   Partly Cloudy
12:53 PM 73.0 °F 63.0 °F 71% 29.96 in 10.0 mi Calm Calm - N/A   Clear
1:53 PM 73.9 °F 64.0 °F 71% 29.93 in 10.0 mi Variable 3.5 mph - N/A   Mostly Cloudy
2:53 PM 73.9 °F 63.0 °F 68% 29.92 in 10.0 mi Calm Calm - N/A   Overcast
3:53 PM 73.0 °F 66.0 °F 79% 29.91 in 10.0 mi ESE 4.6 mph - 0.00 in   Scattered Clouds
4:53 PM 72.0 °F 68.0 °F 87% 29.90 in 10.0 mi ESE 3.5 mph - 0.00 in Rain Light Rain
5:53 PM 71.1 °F 68.0 °F 90% 29.89 in 10.0 mi ESE 3.5 mph - 0.00 in   Partly Cloudy
6:53 PM 70.0 °F 68.0 °F 93% 29.89 in 10.0 mi East 4.6 mph - N/A   Clear
7:53 PM 70.0 °F 66.0 °F 87% 29.91 in 10.0 mi NNE 5.8 mph - N/A   Partly Cloudy
8:53 PM 69.8 °F 66.2 °F 88% 29.92 in 10.0 mi Calm Calm - N/A   Mostly Cloudy
9:53 PM 69.1 °F 66.9 °F 93% 29.91 in 10.0 mi North 3.5 mph - N/A   Overcast
10:24 PM 69.8 °F 66.2 °F 88% 29.91 in 10.0 mi Calm Calm - N/A   Overcast
10:53 PM 69.1 °F 68.0 °F 96% 29.91 in 10.0 mi ENE 3.5 mph - N/A   Mostly Cloudy
11:02 PM 69.8 °F 68.0 °F 94% 29.91 in 10.0 mi Calm Calm - N/A   Scattered Clouds
11:53 PM 69.1 °F 68.0 °F 96% 29.90 in 10.0 mi NNE 3.5 mph - 0.00 in Rain Light Rain